Pelican State — WDE4433 — position and weather

sailwx.info

Track history (hours):
 
Tides and Currents Weather Stations Pressure Air Temp Water Temp Dewpoint Dewpoint Depression Visibility Wind Speed Wind Dir Waves Ship Positions

Pelican State

Owner: Crowley Petroleum Serives, Jacksonville, FL. More information available from US FCC via Universal Licensing System and Coast Guard Vessel Documentation Center.

Last reported at 2016-Jul-29 15:31 UTC. Time now 2016-Sep-27 03:37 UTC.
Position N 30°04' W 093°43'.
Warning: this ship's position is 59 days out of date.

Length 183 m; draft 8.5 m.

Type: Tanker. MMSI: 367353110.

Date/timePositionNaut miles runAvg speedWind from/ knotsBaromVisibWave heightAir tempDewpointWater temp
2016-Jul-29 15:31N 30°04' W 093°43'0 0.0
2016-Jul-29 14:28N 30°04' W 093°43'0 0.0
2016-Jul-29 13:34N 30°04' W 093°43'0 0.0
2016-Jul-29 12:25N 30°04' W 093°43'0 0.0
2016-Jul-29 11:22N 30°04' W 093°43'0 0.0
2016-Jul-29 09:19N 30°04' W 093°43'0 0.0
2016-Jul-29 08:31N 30°04' W 093°43'0 0.0
2016-Jul-29 07:31N 30°04' W 093°43'0 0.0
2016-Jul-29 06:25N 30°04' W 093°43'0 0.0
2016-Jul-29 05:31N 30°04' W 093°43'0 0.0
2016-Jul-29 04:31N 30°04' W 093°43'0 0.0
2016-Jul-29 03:31N 30°04' W 093°43'0 0.0
2016-Jul-29 02:28N 30°04' W 093°43'0 0.0
2016-Jul-29 01:31N 30°04' W 093°43'0 0.0
2016-Jul-29 00:28N 30°04' W 093°43'0 0.0
2016-Jul-28 23:22N 30°04' W 093°43'0 0.0
2016-Jul-28 22:28N 30°04' W 093°43'0 0.0
2016-Jul-28 21:31N 30°04' W 093°43'0 0.0
2016-Jul-28 16:28N 30°04' W 093°43'0 0.0
2016-Jul-28 15:31N 30°04' W 093°43'0 0.0
2016-Jul-28 14:28N 30°04' W 093°43'0 0.0
2016-Jul-28 13:28N 30°04' W 093°43'0 0.0
2016-Jul-28 12:31N 30°04' W 093°43'0 0.0
2016-Jul-28 11:31N 30°04' W 093°43'0 0.0
2016-Jul-28 10:31N 30°04' W 093°43'0 0.0
2016-Jul-28 09:31N 30°04' W 093°43'0 0.0
2016-Jul-28 08:16N 30°04' W 093°43'0 0.0
2016-Jul-28 07:31N 30°04' W 093°43'0 0.0
2016-Jul-28 06:31N 30°04' W 093°43'0 0.0
2016-Jul-28 05:31N 30°04' W 093°43'0 0.0
2016-Jul-28 04:31N 30°04' W 093°43'0 0.0
2016-Jul-28 03:31N 30°04' W 093°43'0 0.0
2016-Jul-28 02:31N 30°04' W 093°43'0 0.0
2016-Jul-28 01:31N 30°04' W 093°43'0 0.0
2016-Jul-28 00:19N 30°04' W 093°43'0 0.0
2016-Jul-27 23:31N 30°04' W 093°43'0 0.0
2016-Jul-27 22:25N 30°04' W 093°43'0 0.0
2016-Jul-27 21:25N 30°04' W 093°43'0 0.0
2016-Jul-27 20:25N 30°04' W 093°43'0 0.0
2016-Jul-27 19:31N 30°04' W 093°43'0 0.0
2016-Jul-27 18:31N 30°04' W 093°43'0 0.0
2016-Jul-27 17:31N 30°04' W 093°43'0 0.0
2016-Jul-27 16:31N 30°04' W 093°43'0 0.0
2016-Jul-27 15:25N 30°04' W 093°43'0 0.0
2016-Jul-27 14:25N 30°04' W 093°43'0 0.0
2016-Jul-27 13:13N 30°04' W 093°43'0 0.0
2016-Jul-27 12:31N 30°04' W 093°43'0 0.0
2016-Jul-27 11:25N 30°04' W 093°43'0 0.0
2016-Jul-27 09:25N 30°04' W 093°43'0 0.0
2016-Jul-27 08:31N 30°04' W 093°43'0 0.0
2016-Jul-27 07:31N 30°04' W 093°43'0 0.0
2016-Jul-27 06:31N 30°04' W 093°43'0 0.0
2016-Jul-27 05:31N 30°04' W 093°43'0 0.0
2016-Jul-27 04:31N 30°04' W 093°43'0 0.0
2016-Jul-27 03:25N 30°04' W 093°43'0 0.0
2016-Jul-27 02:31N 30°04' W 093°43'0 0.0
2016-Jul-27 01:25N 30°04' W 093°43'0 0.0
2016-Jul-27 00:25N 30°04' W 093°43'0 0.0
2016-Jul-26 23:13N 30°04' W 093°43'0 0.0
2016-Jul-26 22:19N 30°04' W 093°43'0 0.0
2016-Jul-26 21:19N 30°04' W 093°43'0 0.0
2016-Jul-26 12:06N 30°04' W 093°43'0 0.0
2016-Jul-26 11:27N 30°04' W 093°43'0 0.0
2016-Jul-26 02:21N 30°04' W 093°43'0 0.0
2016-Jul-26 01:27N 30°04' W 093°43'0 0.0
2016-Jul-26 00:29N 30°04' W 093°43'0 0.0
2016-Jul-25 23:33N 30°04' W 093°43'  
2016-Jul-21 22:33N 30°04' W 093°43'2 2.1
2016-Jul-21 21:34N 30°02' W 093°44'6 6.5
2016-Jul-21 20:33N 29°58' W 093°50'5 5.4
2016-Jul-21 19:34N 29°54' W 093°54'25 7.8
2016-Jul-21 16:21N 29°31' W 093°43'7 9.2
2016-Jul-21 15:32N 29°24' W 093°40'1111.1
2016-Jul-21 14:31N 29°13' W 093°39'1111.2
2016-Jul-21 13:34N 29°03' W 093°35'8 8.3
2016-Jul-21 12:33N 28°56' W 093°29'9 8.7
2016-Jul-21 11:29N 28°49' W 093°23'10 8.8
2016-Jul-21 10:22N 28°41' W 093°16'1211.7
2016-Jul-21 09:22N 28°32' W 093°08'1012.1
2016-Jul-21 08:33N 28°24' W 093°01'1211.9
2016-Jul-21 07:32N 28°14' W 092°53'  
Track history (hours):
 
Tides and Currents Weather Stations Pressure Air Temp Water Temp Dewpoint Dewpoint Depression Visibility Wind Speed Wind Dir Waves Ship Positions

Pelican State

Owner: Crowley Petroleum Serives, Jacksonville, FL. More information available from US FCC via Universal Licensing System and Coast Guard Vessel Documentation Center.

Last reported at 2016-Jul-29 15:31 UTC. Time now 2016-Sep-27 03:37 UTC.
Position N 30°04' W 093°43'.
Warning: this ship's position is 59 days out of date.

Length 183 m; draft 8.5 m.

Type: Tanker. MMSI: 367353110.

Date/timePositionNaut miles runAvg speedWind from/ knotsBaromVisibWave heightAir tempDewpointWater temp
2016-Jul-29 15:31N 30°04' W 093°43'0 0.0
2016-Jul-29 14:28N 30°04' W 093°43'0 0.0
2016-Jul-29 13:34N 30°04' W 093°43'0 0.0
2016-Jul-29 12:25N 30°04' W 093°43'0 0.0
2016-Jul-29 11:22N 30°04' W 093°43'0 0.0
2016-Jul-29 09:19N 30°04' W 093°43'0 0.0
2016-Jul-29 08:31N 30°04' W 093°43'0 0.0
2016-Jul-29 07:31N 30°04' W 093°43'0 0.0
2016-Jul-29 06:25N 30°04' W 093°43'0 0.0
2016-Jul-29 05:31N 30°04' W 093°43'0 0.0
2016-Jul-29 04:31N 30°04' W 093°43'0 0.0
2016-Jul-29 03:31N 30°04' W 093°43'0 0.0
2016-Jul-29 02:28N 30°04' W 093°43'0 0.0
2016-Jul-29 01:31N 30°04' W 093°43'0 0.0
2016-Jul-29 00:28N 30°04' W 093°43'0 0.0
2016-Jul-28 23:22N 30°04' W 093°43'0 0.0
2016-Jul-28 22:28N 30°04' W 093°43'0 0.0
2016-Jul-28 21:31N 30°04' W 093°43'0 0.0
2016-Jul-28 16:28N 30°04' W 093°43'0 0.0
2016-Jul-28 15:31N 30°04' W 093°43'0 0.0
2016-Jul-28 14:28N 30°04' W 093°43'0 0.0
2016-Jul-28 13:28N 30°04' W 093°43'0 0.0
2016-Jul-28 12:31N 30°04' W 093°43'0 0.0
2016-Jul-28 11:31N 30°04' W 093°43'0 0.0
2016-Jul-28 10:31N 30°04' W 093°43'0 0.0
2016-Jul-28 09:31N 30°04' W 093°43'0 0.0
2016-Jul-28 08:16N 30°04' W 093°43'0 0.0
2016-Jul-28 07:31N 30°04' W 093°43'0 0.0
2016-Jul-28 06:31N 30°04' W 093°43'0 0.0
2016-Jul-28 05:31N 30°04' W 093°43'0 0.0
2016-Jul-28 04:31N 30°04' W 093°43'0 0.0
2016-Jul-28 03:31N 30°04' W 093°43'0 0.0
2016-Jul-28 02:31N 30°04' W 093°43'0 0.0
2016-Jul-28 01:31N 30°04' W 093°43'0 0.0
2016-Jul-28 00:19N 30°04' W 093°43'0 0.0
2016-Jul-27 23:31N 30°04' W 093°43'0 0.0
2016-Jul-27 22:25N 30°04' W 093°43'0 0.0
2016-Jul-27 21:25N 30°04' W 093°43'0 0.0
2016-Jul-27 20:25N 30°04' W 093°43'0 0.0
2016-Jul-27 19:31N 30°04' W 093°43'0 0.0
2016-Jul-27 18:31N 30°04' W 093°43'0 0.0
2016-Jul-27 17:31N 30°04' W 093°43'0 0.0
2016-Jul-27 16:31N 30°04' W 093°43'0 0.0
2016-Jul-27 15:25N 30°04' W 093°43'0 0.0
2016-Jul-27 14:25N 30°04' W 093°43'0 0.0
2016-Jul-27 13:13N 30°04' W 093°43'0 0.0
2016-Jul-27 12:31N 30°04' W 093°43'0 0.0
2016-Jul-27 11:25N 30°04' W 093°43'0 0.0
2016-Jul-27 09:25N 30°04' W 093°43'0 0.0
2016-Jul-27 08:31N 30°04' W 093°43'0 0.0
2016-Jul-27 07:31N 30°04' W 093°43'0 0.0
2016-Jul-27 06:31N 30°04' W 093°43'0 0.0
2016-Jul-27 05:31N 30°04' W 093°43'0 0.0
2016-Jul-27 04:31N 30°04' W 093°43'0 0.0
2016-Jul-27 03:25N 30°04' W 093°43'0 0.0
2016-Jul-27 02:31N 30°04' W 093°43'0 0.0
2016-Jul-27 01:25N 30°04' W 093°43'0 0.0
2016-Jul-27 00:25N 30°04' W 093°43'0 0.0
2016-Jul-26 23:13N 30°04' W 093°43'0 0.0
2016-Jul-26 22:19N 30°04' W 093°43'0 0.0
2016-Jul-26 21:19N 30°04' W 093°43'0 0.0
2016-Jul-26 12:06N 30°04' W 093°43'0 0.0
2016-Jul-26 11:27N 30°04' W 093°43'0 0.0
2016-Jul-26 02:21N 30°04' W 093°43'0 0.0
2016-Jul-26 01:27N 30°04' W 093°43'0 0.0
2016-Jul-26 00:29N 30°04' W 093°43'0 0.0
2016-Jul-25 23:33N 30°04' W 093°43'  
2016-Jul-21 22:33N 30°04' W 093°43'2 2.1
2016-Jul-21 21:34N 30°02' W 093°44'6 6.5
2016-Jul-21 20:33N 29°58' W 093°50'5 5.4
2016-Jul-21 19:34N 29°54' W 093°54'25 7.8
2016-Jul-21 16:21N 29°31' W 093°43'7 9.2
2016-Jul-21 15:32N 29°24' W 093°40'1111.1
2016-Jul-21 14:31N 29°13' W 093°39'1111.2
2016-Jul-21 13:34N 29°03' W 093°35'8 8.3
2016-Jul-21 12:33N 28°56' W 093°29'9 8.7
2016-Jul-21 11:29N 28°49' W 093°23'10 8.8
2016-Jul-21 10:22N 28°41' W 093°16'1211.7
2016-Jul-21 09:22N 28°32' W 093°08'1012.1
2016-Jul-21 08:33N 28°24' W 093°01'1211.9
2016-Jul-21 07:32N 28°14' W 092°53'  

Dump ship's entire track history